Data No.,UTC Date,UTC Time,Latitude,Longitude,Course(deg),Temp(degC),Sal(psu)
198,2014/9/21,12:36:00,03-29.4700S,117-00.0900E,86,29.095,34.1717
199,2014/9/21,12:37:00,03-29.4600S,117-00.2700E,86,29.078,34.172
200,2014/9/21,12:38:00,03-29.4400S,117-00.4600E,86,29.08,34.1711
201,2014/9/21,12:39:00,03-29.4300S,117-00.6500E,85,29.088,34.173
202,2014/9/21,12:40:00,03-29.4200S,117-00.8400E,85,29.082,34.1726
203,2014/9/21,12:41:00,03-29.4000S,117-01.0300E,86,29.089,34.175
204,2014/9/21,12:42:00,03-29.3900S,117-01.2200E,86,29.066,34.1752
205,2014/9/21,12:43:00,03-29.3800S,117-01.4000E,86,29.037,34.1771
206,2014/9/21,12:44:00,03-29.3600S,117-01.5900E,85,29.031,34.1762
207,2014/9/21,12:45:00,03-29.3500S,117-01.7800E,86,29.029,34.1765
208,2014/9/21,12:46:00,03-29.3400S,117-01.9700E,86,29.035,34.1768
209,2014/9/21,12:47:00,03-29.3300S,117-02.1600E,85,29.059,34.1795
210,2014/9/21,12:48:00,03-29.3100S,117-02.3500E,85,29.061,34.1815
211,2014/9/21,12:49:00,03-29.3000S,117-02.5400E,85,29.087,34.1833
212,2014/9/21,12:50:00,03-29.2800S,117-02.7300E,86,29.062,34.1862
213,2014/9/21,12:51:00,03-29.2700S,117-02.9200E,85,29.067,34.1882
214,2014/9/21,12:52:00,03-29.2500S,117-03.1100E,85,29.044,34.1902
215,2014/9/21,12:53:00,03-29.2400S,117-03.2900E,85,29.043,34.1904
216,2014/9/21,12:54:00,03-29.2300S,117-03.4900E,86,29.038,34.1921
217,2014/9/21,12:55:00,03-29.2100S,117-03.6700E,85,29.039,34.1915
218,2014/9/21,12:56:00,03-29.2000S,117-03.8600E,85,29.014,34.1929
219,2014/9/21,12:57:00,03-29.1800S,117-04.0500E,86,29,34.1934
220,2014/9/21,12:58:00,03-29.1700S,117-04.2400E,85,28.994,34.194
221,2014/9/21,12:59:00,03-29.1600S,117-04.4300E,85,28.994,34.1962
222,2014/9/21,13:00:00,03-29.1400S,117-04.6100E,85,29.005,34.1988
223,2014/9/21,13:01:00,03-29.1300S,117-04.8000E,85,29.012,34.2013
224,2014/9/21,13:02:00,03-29.1100S,117-05.0100E,85,29.01,34.2049
225,2014/9/21,13:03:00,03-29.1000S,117-05.2000E,85,28.992,34.2076
226,2014/9/21,13:04:00,03-29.0800S,117-05.3900E,85,29.007,34.2096
227,2014/9/21,13:05:00,03-29.0600S,117-05.5800E,85,29.016,34.2133
228,2014/9/21,13:06:00,03-29.0500S,117-05.7700E,85,29.021,34.2176
229,2014/9/21,13:07:00,03-29.0300S,117-05.9600E,85,29.013,34.22
230,2014/9/21,13:08:00,03-29.0200S,117-06.1400E,85,28.972,34.2233
231,2014/9/21,13:09:00,03-29.0000S,117-06.3300E,85,28.96,34.2248
232,2014/9/21,13:10:00,03-28.9800S,117-06.5200E,84,28.963,34.2274
233,2014/9/21,13:11:00,03-28.9700S,117-06.7200E,85,28.984,34.2289
234,2014/9/21,13:12:00,03-28.9500S,117-06.9000E,85,28.974,34.2334
235,2014/9/21,13:13:00,03-28.9400S,117-07.0900E,85,28.955,34.2363
236,2014/9/21,13:14:00,03-28.9200S,117-07.2800E,84,28.939,34.2389
237,2014/9/21,13:15:00,03-28.9100S,117-07.4700E,84,28.947,34.2405
238,2014/9/21,13:16:00,03-28.8900S,117-07.6600E,85,28.942,34.2446
239,2014/9/21,13:17:00,03-28.8700S,117-07.8500E,85,28.954,34.2492
240,2014/9/21,13:18:00,03-28.8600S,117-08.0300E,85,28.942,34.2537
241,2014/9/21,13:19:00,03-28.8400S,117-08.2200E,84,28.94,34.2564
242,2014/9/21,13:20:00,03-28.8300S,117-08.4100E,85,28.958,34.258
243,2014/9/21,13:21:00,03-28.8100S,117-08.6000E,85,28.948,34.2625
244,2014/9/21,13:22:00,03-28.8000S,117-08.7900E,85,28.933,34.2644
245,2014/9/21,13:23:00,03-28.7800S,117-08.9800E,85,28.911,34.2677
246,2014/9/21,13:24:00,03-28.7600S,117-09.1700E,84,28.897,34.2711
247,2014/9/21,13:25:00,03-28.7500S,117-09.3600E,84,28.928,34.2746
248,2014/9/21,13:26:00,03-28.7300S,117-09.5400E,85,28.957,34.2793
249,2014/9/21,13:27:00,03-28.7200S,117-09.7300E,85,28.915,34.284
250,2014/9/21,13:28:00,03-28.7000S,117-09.9200E,85,28.903,34.2886
251,2014/9/21,13:29:00,03-28.6800S,117-10.1200E,85,28.901,34.2909
252,2014/9/21,13:30:00,03-28.6700S,117-10.3100E,85,28.936,34.2936
253,2014/9/21,13:31:00,03-28.6500S,117-10.5000E,85,28.942,34.2969
254,2014/9/21,13:32:00,03-28.6400S,117-10.6900E,84,28.932,34.2992
255,2014/9/21,13:33:00,03-28.6200S,117-10.8700E,84,28.929,34.301
256,2014/9/21,13:34:00,03-28.6000S,117-11.0600E,85,28.94,34.3034
257,2014/9/21,13:35:00,03-28.5900S,117-11.2500E,85,28.946,34.305
258,2014/9/21,13:36:00,03-28.5700S,117-11.4400E,84,28.933,34.3056
259,2014/9/21,13:37:00,03-28.5600S,117-11.6200E,86,28.859,34.3064
260,2014/9/21,13:38:00,03-28.5400S,117-11.8100E,86,28.824,34.3072
261,2014/9/21,13:39:00,03-28.5300S,117-12.0000E,84,28.864,34.3087
262,2014/9/21,13:40:00,03-28.5100S,117-12.1900E,83,28.879,34.3131
263,2014/9/21,13:41:00,03-28.4900S,117-12.3700E,85,28.855,34.3161
264,2014/9/21,13:42:00,03-28.4800S,117-12.5600E,86,28.861,34.3199
265,2014/9/21,13:43:00,03-28.4700S,117-12.7500E,86,28.836,34.3244
266,2014/9/21,13:44:00,03-28.4500S,117-12.9400E,84,28.833,34.327
267,2014/9/21,13:45:00,03-28.4300S,117-13.1300E,83,28.89,34.3291
268,2014/9/21,13:46:00,03-28.4100S,117-13.3100E,85,28.827,34.3304
269,2014/9/21,13:47:00,03-28.4000S,117-13.5000E,86,28.778,34.3322
270,2014/9/21,13:48:00,03-28.3900S,117-13.6900E,86,28.762,34.3337
271,2014/9/21,13:49:00,03-28.3800S,117-13.8700E,85,28.743,34.3359
272,2014/9/21,13:50:00,03-28.3600S,117-14.0600E,83,28.734,34.3364
273,2014/9/21,13:51:00,03-28.3400S,117-14.2500E,84,28.731,34.3388
274,2014/9/21,13:52:00,03-28.3200S,117-14.4400E,84,28.73,34.3397
275,2014/9/21,13:53:00,03-28.3000S,117-14.6200E,85,28.75,34.3412
276,2014/9/21,13:54:00,03-28.2900S,117-14.8100E,84,28.773,34.3421
277,2014/9/21,13:55:00,03-28.2700S,117-15.0000E,84,28.797,34.3423
278,2014/9/21,13:56:00,03-28.2500S,117-15.1900E,84,28.793,34.3426
279,2014/9/21,13:57:00,03-28.2400S,117-15.3900E,86,28.768,34.3438
280,2014/9/21,13:58:00,03-28.2300S,117-15.5700E,85,28.79,34.3462
281,2014/9/21,13:59:00,03-28.2100S,117-15.7600E,83,28.826,34.348
282,2014/9/21,14:00:00,03-28.1900S,117-15.9500E,84,28.817,34.3462
283,2014/9/21,14:01:00,03-28.1700S,117-16.1300E,85,28.793,34.3461
284,2014/9/21,14:02:00,03-28.1600S,117-16.3200E,85,28.754,34.3466
285,2014/9/21,14:03:00,03-28.1400S,117-16.5100E,86,28.683,34.3498
286,2014/9/21,14:04:00,03-28.1400S,117-16.6900E,87,28.696,34.352
287,2014/9/21,14:05:00,03-28.1300S,117-16.8800E,87,28.693,34.3511
288,2014/9/21,14:06:00,03-28.1100S,117-17.0700E,86,28.706,34.3492
289,2014/9/21,14:07:00,03-28.1000S,117-17.2600E,87,28.715,34.3468
290,2014/9/21,14:08:00,03-28.0900S,117-17.4500E,87,28.707,34.3473
291,2014/9/21,14:09:00,03-28.0900S,117-17.6300E,87,28.683,34.3469
292,2014/9/21,14:10:00,03-28.0800S,117-17.8200E,87,28.655,34.3474
293,2014/9/21,14:11:00,03-28.0700S,117-18.0100E,86,28.665,34.3459
294,2014/9/21,14:12:00,03-28.0600S,117-18.1900E,86,28.671,34.345
295,2014/9/21,14:13:00,03-28.0500S,117-18.3800E,85,28.64,34.3428
296,2014/9/21,14:14:00,03-28.0300S,117-18.5700E,85,28.644,34.3429
297,2014/9/21,14:15:00,03-28.0200S,117-18.7500E,86,28.622,34.3434
298,2014/9/21,14:16:00,03-28.0100S,117-18.9400E,87,28.602,34.3431
299,2014/9/21,14:17:00,03-28.0000S,117-19.1300E,87,28.596,34.3437
300,2014/9/21,14:18:00,03-27.9900S,117-19.3200E,86,28.581,34.3424
301,2014/9/21,14:19:00,03-27.9800S,117-19.5100E,85,28.565,34.3422
302,2014/9/21,14:20:00,03-27.9600S,117-19.6900E,85,28.553,34.3425
303,2014/9/21,14:21:00,03-27.9500S,117-19.8800E,86,28.539,34.3419
304,2014/9/21,14:22:00,03-27.9400S,117-20.0700E,86,28.53,34.3443
305,2014/9/21,14:23:00,03-27.9300S,117-20.2600E,86,28.535,34.3449
306,2014/9/21,14:24:00,03-27.9100S,117-20.4600E,86,28.531,34.3439
307,2014/9/21,14:25:00,03-27.9000S,117-20.6500E,86,28.505,34.3447
308,2014/9/21,14:26:00,03-27.8900S,117-20.8400E,86,28.479,34.3454
309,2014/9/21,14:27:00,03-27.8700S,117-21.0300E,85,28.48,34.3449
310,2014/9/21,14:28:00,03-27.8600S,117-21.2200E,85,28.467,34.3435
311,2014/9/21,14:29:00,03-27.8400S,117-21.4100E,85,28.46,34.3426
312,2014/9/21,14:30:00,03-27.8300S,117-21.6000E,86,28.46,34.3426
313,2014/9/21,14:31:00,03-27.8200S,117-21.7900E,86,28.487,34.3444
314,2014/9/21,14:32:00,03-27.8100S,117-21.9700E,86,28.515,34.3487
315,2014/9/21,14:33:00,03-27.7900S,117-22.1700E,86,28.509,34.3515
316,2014/9/21,14:34:00,03-27.7800S,117-22.3600E,86,28.501,34.3519
317,2014/9/21,14:35:00,03-27.7700S,117-22.5500E,86,28.498,34.3521
318,2014/9/21,14:36:00,03-27.7600S,117-22.7400E,85,28.513,34.349
319,2014/9/21,14:37:00,03-27.7400S,117-22.9300E,86,28.516,34.345
320,2014/9/21,14:38:00,03-27.7300S,117-23.1100E,86,28.503,34.3386
321,2014/9/21,14:39:00,03-27.7200S,117-23.3000E,87,28.46,34.3326
322,2014/9/21,14:40:00,03-27.7100S,117-23.5000E,86,28.435,34.329
323,2014/9/21,14:41:00,03-27.6900S,117-23.6800E,86,28.403,34.3237
324,2014/9/21,14:42:00,03-27.6800S,117-23.8700E,86,28.38,34.3158
325,2014/9/21,14:43:00,03-27.6700S,117-24.0600E,86,28.379,34.3114
326,2014/9/21,14:44:00,03-27.6600S,117-24.2500E,86,28.381,34.309
327,2014/9/21,14:45:00,03-27.6500S,117-24.4400E,87,28.372,34.3067
328,2014/9/21,14:46:00,03-27.6400S,117-24.6200E,86,28.373,34.3052
329,2014/9/21,14:47:00,03-27.6200S,117-24.8200E,85,28.364,34.3041
330,2014/9/21,14:48:00,03-27.6100S,117-25.0100E,85,28.412,34.3028
331,2014/9/21,14:49:00,03-27.5900S,117-25.2000E,86,28.426,34.3008
332,2014/9/21,14:50:00,03-27.5800S,117-25.3900E,86,28.432,34.2985
333,2014/9/21,14:51:00,03-27.5700S,117-25.6000E,86,28.435,34.2997
334,2014/9/21,14:52:00,03-27.5600S,117-25.7800E,84,28.456,34.2994
335,2014/9/21,14:53:00,03-27.5400S,117-25.9700E,84,28.456,34.2999
336,2014/9/21,14:54:00,03-27.5200S,117-26.1600E,84,28.45,34.2989
337,2014/9/21,14:55:00,03-27.5000S,117-26.3600E,84,28.468,34.2983
338,2014/9/21,14:56:00,03-27.4800S,117-26.5400E,84,28.472,34.2976
339,2014/9/21,14:57:00,03-27.4600S,117-26.7300E,84,28.473,34.2963
340,2014/9/21,14:58:00,03-27.4400S,117-26.9200E,82,28.464,34.2978
341,2014/9/21,14:59:00,03-27.4100S,117-27.1000E,82,28.465,34.2962
342,2014/9/21,15:00:00,03-27.3900S,117-27.2900E,82,28.482,34.2955
343,2014/9/21,15:01:00,03-27.3600S,117-27.4800E,82,28.492,34.2975
344,2014/9/21,15:02:00,03-27.3300S,117-27.6600E,82,28.483,34.3008
345,2014/9/21,15:03:00,03-27.3100S,117-27.8500E,82,28.477,34.2992
346,2014/9/21,15:04:00,03-27.2800S,117-28.0400E,82,28.486,34.2967
347,2014/9/21,15:05:00,03-27.2600S,117-28.2300E,82,28.486,34.2993
348,2014/9/21,15:06:00,03-27.2300S,117-28.4200E,82,28.507,34.3005
349,2014/9/21,15:07:00,03-27.2000S,117-28.6000E,82,28.507,34.3028
350,2014/9/21,15:08:00,03-27.1800S,117-28.7900E,82,28.524,34.307
351,2014/9/21,15:09:00,03-27.1500S,117-28.9800E,81,28.572,34.3081
352,2014/9/21,15:10:00,03-27.1200S,117-29.1700E,81,28.594,34.3166
353,2014/9/21,15:11:00,03-27.0900S,117-29.3600E,82,28.571,34.325
354,2014/9/21,15:12:00,03-27.0700S,117-29.5500E,83,28.571,34.3232
355,2014/9/21,15:13:00,03-27.0500S,117-29.7400E,82,28.573,34.3249
356,2014/9/21,15:14:00,03-27.0300S,117-29.9200E,82,28.561,34.3258
357,2014/9/21,15:15:00,03-27.0000S,117-30.1100E,83,28.545,34.3242
358,2014/9/21,15:16:00,03-26.9800S,117-30.3000E,82,28.538,34.3221
359,2014/9/21,15:17:00,03-26.9500S,117-30.4900E,82,28.518,34.323
360,2014/9/21,15:18:00,03-26.9300S,117-30.6900E,82,28.531,34.3224
361,2014/9/21,15:19:00,03-26.9000S,117-30.8800E,82,28.556,34.3246
362,2014/9/21,15:20:00,03-26.8800S,117-31.0700E,83,28.548,34.3296
363,2014/9/21,15:21:00,03-26.8600S,117-31.2500E,82,28.551,34.3321
364,2014/9/21,15:22:00,03-26.8300S,117-31.4400E,80,28.565,34.332
365,2014/9/21,15:23:00,03-26.8000S,117-31.6300E,81,28.566,34.3386
366,2014/9/21,15:24:00,03-26.7700S,117-31.8200E,82,28.561,34.3408
367,2014/9/21,15:25:00,03-26.7500S,117-32.0100E,82,28.554,34.3422
368,2014/9/21,15:26:00,03-26.7200S,117-32.2000E,81,28.576,34.3425
369,2014/9/21,15:27:00,03-26.7000S,117-32.3900E,82,28.57,34.3475
370,2014/9/21,15:28:00,03-26.6700S,117-32.5800E,82,28.565,34.3499
371,2014/9/21,15:29:00,03-26.6500S,117-32.7600E,82,28.565,34.3497
372,2014/9/21,15:30:00,03-26.6200S,117-32.9500E,82,28.551,34.3494
373,2014/9/21,15:31:00,03-26.6000S,117-33.1400E,84,28.542,34.3479
374,2014/9/21,15:32:00,03-26.5900S,117-33.3300E,86,28.543,34.3446
375,2014/9/21,15:33:00,03-26.5800S,117-33.5200E,86,28.526,34.3444
376,2014/9/21,15:34:00,03-26.5600S,117-33.7100E,85,28.51,34.341
377,2014/9/21,15:35:00,03-26.5400S,117-33.9100E,85,28.518,34.3404
378,2014/9/21,15:36:00,03-26.5300S,117-34.1000E,85,28.514,34.3396
379,2014/9/21,15:37:00,03-26.5100S,117-34.2900E,85,28.513,34.3397
380,2014/9/21,15:38:00,03-26.5000S,117-34.4800E,85,28.505,34.3382
381,2014/9/21,15:39:00,03-26.4800S,117-34.6700E,85,28.513,34.3374
382,2014/9/21,15:40:00,03-26.4700S,117-34.8600E,87,28.51,34.338
383,2014/9/21,15:41:00,03-26.4600S,117-35.0500E,86,28.497,34.3395
384,2014/9/21,15:42:00,03-26.4500S,117-35.2400E,86,28.495,34.3397
385,2014/9/21,15:43:00,03-26.4300S,117-35.4300E,85,28.493,34.3388
386,2014/9/21,15:44:00,03-26.4200S,117-35.6300E,85,28.493,34.3379
387,2014/9/21,15:45:00,03-26.4000S,117-35.8200E,85,28.491,34.3377
388,2014/9/21,15:46:00,03-26.3900S,117-36.0200E,86,28.483,34.3391
389,2014/9/21,15:47:00,03-26.3800S,117-36.2200E,86,28.478,34.3389
390,2014/9/21,15:48:00,03-26.3700S,117-36.4100E,86,28.48,34.3382
391,2014/9/21,15:49:00,03-26.3500S,117-36.6000E,86,28.47,34.3382
392,2014/9/21,15:50:00,03-26.3400S,117-36.7900E,85,28.471,34.3379
393,2014/9/21,15:51:00,03-26.3200S,117-36.9800E,85,28.471,34.3357
394,2014/9/21,15:52:00,03-26.3100S,117-37.1800E,86,28.466,34.3335
395,2014/9/21,15:53:00,03-26.3000S,117-37.3700E,86,28.459,34.3326
396,2014/9/21,15:54:00,03-26.2900S,117-37.5600E,86,28.449,34.3324
397,2014/9/21,15:55:00,03-26.2700S,117-37.7500E,86,28.44,34.3308
398,2014/9/21,15:56:00,03-26.2600S,117-37.9500E,86,28.437,34.3325
399,2014/9/21,15:57:00,03-26.2500S,117-38.1400E,86,28.432,34.3339
400,2014/9/21,15:58:00,03-26.2400S,117-38.3300E,86,28.43,34.3347
401,2014/9/21,15:59:00,03-26.2200S,117-38.5300E,86,28.435,34.3331
402,2014/9/21,16:00:00,03-26.2100S,117-38.7200E,85,28.438,34.3309
403,2014/9/21,16:01:00,03-26.2000S,117-38.9100E,85,28.446,34.3295
404,2014/9/21,16:02:00,03-26.1800S,117-39.1000E,86,28.465,34.3261
405,2014/9/21,16:03:00,03-26.1700S,117-39.3000E,86,28.485,34.3248
406,2014/9/21,16:04:00,03-26.1600S,117-39.4900E,86,28.494,34.3263
407,2014/9/21,16:05:00,03-26.1400S,117-39.6800E,85,28.499,34.3286
408,2014/9/21,16:06:00,03-26.1300S,117-39.8700E,85,28.526,34.3314
409,2014/9/21,16:07:00,03-26.1100S,117-40.0600E,86,28.538,34.3351
410,2014/9/21,16:08:00,03-26.1000S,117-40.2500E,86,28.553,34.3431
411,2014/9/21,16:09:00,03-26.0900S,117-40.4500E,86,28.568,34.3538
412,2014/9/21,16:10:00,03-26.0800S,117-40.6400E,85,28.55,34.3661
413,2014/9/21,16:11:00,03-26.0600S,117-40.8300E,85,28.568,34.367
414,2014/9/21,16:12:00,03-26.0500S,117-41.0200E,86,28.551,34.3721
415,2014/9/21,16:13:00,03-26.0400S,117-41.2200E,85,28.579,34.3788
416,2014/9/21,16:14:00,03-26.0200S,117-41.4200E,86,28.561,34.3842
417,2014/9/21,16:15:00,03-26.0100S,117-41.6100E,86,28.535,34.3851
418,2014/9/21,16:16:00,03-26.0000S,117-41.8000E,86,28.519,34.3812
419,2014/9/21,16:17:00,03-25.9900S,117-41.9900E,86,28.507,34.3795
420,2014/9/21,16:18:00,03-25.9800S,117-42.1800E,85,28.511,34.3794
421,2014/9/21,16:19:00,03-25.9600S,117-42.3700E,86,28.508,34.3807
422,2014/9/21,16:20:00,03-25.9500S,117-42.5600E,85,28.519,34.3794
423,2014/9/21,16:21:00,03-25.9400S,117-42.7500E,85,28.529,34.3728
424,2014/9/21,16:22:00,03-25.9200S,117-42.9400E,85,28.556,34.3767
425,2014/9/21,16:23:00,03-25.9100S,117-43.1300E,85,28.572,34.3861
426,2014/9/21,16:24:00,03-25.8900S,117-43.3200E,85,28.585,34.3998
427,2014/9/21,16:25:00,03-25.8800S,117-43.5100E,85,28.604,34.411
428,2014/9/21,16:26:00,03-25.8700S,117-43.7000E,86,28.597,34.4217
429,2014/9/21,16:27:00,03-25.8600S,117-43.8900E,85,28.614,34.4279
430,2014/9/21,16:28:00,03-25.8500S,117-44.0800E,86,28.618,34.4326
431,2014/9/21,16:29:00,03-25.8300S,117-44.2700E,86,28.618,34.4347
432,2014/9/21,16:30:00,03-25.8200S,117-44.4600E,85,28.609,34.4354
433,2014/9/21,16:31:00,03-25.8000S,117-44.6500E,85,28.608,34.4342
434,2014/9/21,16:32:00,03-25.7900S,117-44.8300E,85,28.608,34.4308
435,2014/9/21,16:33:00,03-25.7700S,117-45.0200E,85,28.61,34.428
436,2014/9/21,16:34:00,03-25.7600S,117-45.2000E,85,28.612,34.4286
437,2014/9/21,16:35:00,03-25.7400S,117-45.4000E,85,28.606,34.429
438,2014/9/21,16:36:00,03-25.7300S,117-45.5900E,84,28.602,34.4296
439,2014/9/21,16:37:00,03-25.7100S,117-45.7700E,85,28.595,34.4268
440,2014/9/21,16:38:00,03-25.7000S,117-45.9600E,85,28.581,34.424
441,2014/9/21,16:39:00,03-25.6800S,117-46.1500E,86,28.57,34.4215
442,2014/9/21,16:40:00,03-25.6700S,117-46.3400E,85,28.556,34.4226
443,2014/9/21,16:41:00,03-25.6600S,117-46.5200E,85,28.562,34.4234
444,2014/9/21,16:42:00,03-25.6400S,117-46.7300E,85,28.561,34.4114
445,2014/9/21,16:43:00,03-25.6300S,117-46.9100E,85,28.554,34.4093
446,2014/9/21,16:44:00,03-25.6100S,117-47.1000E,85,28.546,34.4058
447,2014/9/21,16:45:00,03-25.5900S,117-47.2900E,84,28.544,34.404
448,2014/9/21,16:46:00,03-25.5800S,117-47.4800E,85,28.547,34.3999
449,2014/9/21,16:47:00,03-25.5600S,117-47.6600E,85,28.543,34.3962
450,2014/9/21,16:48:00,03-25.5500S,117-47.8500E,85,28.537,34.3951
451,2014/9/21,16:49:00,03-25.5400S,117-48.0400E,85,28.519,34.3957
452,2014/9/21,16:50:00,03-25.5200S,117-48.2200E,85,28.501,34.3955
453,2014/9/21,16:51:00,03-25.5100S,117-48.4200E,85,28.476,34.3938
454,2014/9/21,16:52:00,03-25.4900S,117-48.6000E,85,28.473,34.3933
455,2014/9/21,16:53:00,03-25.4700S,117-48.7900E,85,28.482,34.3873
456,2014/9/21,16:54:00,03-25.4600S,117-48.9800E,84,28.491,34.3886
457,2014/9/21,16:55:00,03-25.4400S,117-49.1700E,85,28.502,34.3909
458,2014/9/21,16:56:00,03-25.4300S,117-49.3600E,85,28.515,34.3894
459,2014/9/21,16:57:00,03-25.4100S,117-49.5500E,85,28.509,34.3934
460,2014/9/21,16:58:00,03-25.3900S,117-49.7300E,84,28.496,34.3988
461,2014/9/21,16:59:00,03-25.3700S,117-49.9200E,84,28.495,34.3994
462,2014/9/21,17:00:00,03-25.3600S,117-50.1100E,85,28.511,34.3917
463,2014/9/21,17:01:00,03-25.3500S,117-50.2900E,85,28.515,34.3961
464,2014/9/21,17:02:00,03-25.3300S,117-50.4800E,84,28.515,34.3959
465,2014/9/21,17:03:00,03-25.3100S,117-50.6700E,84,28.511,34.3955
466,2014/9/21,17:04:00,03-25.2900S,117-50.8500E,85,28.519,34.3982
467,2014/9/21,17:05:00,03-25.2800S,117-51.0400E,85,28.526,34.4016
468,2014/9/21,17:06:00,03-25.2600S,117-51.2300E,85,28.536,34.4045
469,2014/9/21,17:07:00,03-25.2400S,117-51.4200E,83,28.539,34.4081
470,2014/9/21,17:08:00,03-25.2100S,117-51.6000E,81,28.545,34.409
471,2014/9/21,17:09:00,03-25.1900S,117-51.7900E,81,28.567,34.4107
472,2014/9/21,17:10:00,03-25.1600S,117-51.9800E,81,28.574,34.4122
473,2014/9/21,17:11:00,03-25.1300S,117-52.1700E,81,28.581,34.4131
474,2014/9/21,17:12:00,03-25.1100S,117-52.3500E,82,28.582,34.4154
475,2014/9/21,17:13:00,03-25.0700S,117-52.5400E,77,28.572,34.4189
476,2014/9/21,17:14:00,03-25.0300S,117-52.7200E,76,28.567,34.4211
477,2014/9/21,17:15:00,03-24.9800S,117-52.9000E,75,28.565,34.4227
478,2014/9/21,17:16:00,03-24.9200S,117-53.0800E,69,28.568,34.4247
479,2014/9/21,17:17:00,03-24.8400S,117-53.2400E,63,28.579,34.4276
480,2014/9/21,17:18:00,03-24.7600S,117-53.4100E,63,28.619,34.431
481,2014/9/21,17:19:00,03-24.6800S,117-53.5800E,66,28.626,34.4392
482,2014/9/21,17:20:00,03-24.6100S,117-53.7500E,67,28.624,34.4452
483,2014/9/21,17:21:00,03-24.5400S,117-53.9200E,66,28.618,34.4486
484,2014/9/21,17:22:00,03-24.4600S,117-54.0900E,66,28.623,34.4476
485,2014/9/21,17:23:00,03-24.3800S,117-54.2700E,66,28.638,34.4457
486,2014/9/21,17:24:00,03-24.3100S,117-54.4400E,66,28.638,34.4458
487,2014/9/21,17:25:00,03-24.2300S,117-54.6100E,65,28.672,34.4464
488,2014/9/21,17:26:00,03-24.1500S,117-54.7800E,67,28.668,34.4422
489,2014/9/21,17:27:00,03-24.0900S,117-54.9600E,70,28.659,34.4408
490,2014/9/21,17:28:00,03-24.0200S,117-55.1400E,70,28.647,34.4405
491,2014/9/21,17:29:00,03-23.9600S,117-55.3100E,69,28.64,34.4376
492,2014/9/21,17:30:00,03-23.8900S,117-55.4900E,68,28.65,34.434
493,2014/9/21,17:31:00,03-23.8200S,117-55.6700E,69,28.664,34.4306
494,2014/9/21,17:32:00,03-23.7600S,117-55.8400E,69,28.657,34.4268
495,2014/9/21,17:33:00,03-23.6900S,117-56.0200E,68,28.652,34.4277
496,2014/9/21,17:34:00,03-23.6200S,117-56.1900E,68,28.65,34.4248
497,2014/9/21,17:35:00,03-23.5400S,117-56.3700E,68,28.649,34.4222
498,2014/9/21,17:36:00,03-23.4700S,117-56.5500E,68,28.646,34.4217
499,2014/9/21,17:37:00,03-23.4000S,117-56.7300E,67,28.643,34.4215
500,2014/9/21,17:38:00,03-23.3300S,117-56.9100E,67,28.64,34.4214
501,2014/9/21,17:39:00,03-23.2500S,117-57.0800E,67,28.642,34.4209
502,2014/9/21,17:40:00,03-23.1800S,117-57.2600E,67,28.655,34.4192
503,2014/9/21,17:41:00,03-23.1100S,117-57.4300E,67,28.656,34.4163
504,2014/9/21,17:42:00,03-23.0300S,117-57.6100E,68,28.655,34.4152
505,2014/9/21,17:43:00,03-22.9600S,117-57.7800E,67,28.649,34.4144
506,2014/9/21,17:44:00,03-22.8900S,117-57.9600E,66,28.677,34.4144
507,2014/9/21,17:45:00,03-22.8100S,117-58.1300E,67,28.681,34.4105
508,2014/9/21,17:46:00,03-22.7400S,117-58.3100E,68,28.672,34.4082
509,2014/9/21,17:47:00,03-22.6700S,117-58.4800E,68,28.646,34.409
510,2014/9/21,17:48:00,03-22.6000S,117-58.6600E,67,28.637,34.4075
511,2014/9/21,17:49:00,03-22.5300S,117-58.8300E,68,28.638,34.4063
512,2014/9/21,17:50:00,03-22.4500S,117-59.0100E,67,28.638,34.4049
513,2014/9/21,17:51:00,03-22.3800S,117-59.1900E,66,28.642,34.4051
514,2014/9/21,17:52:00,03-22.3000S,117-59.3600E,68,28.634,34.4038
515,2014/9/21,17:53:00,03-22.2400S,117-59.5400E,69,28.624,34.4057
516,2014/9/21,17:54:00,03-22.1700S,117-59.7200E,69,28.622,34.4049
517,2014/9/21,17:55:00,03-22.1000S,117-59.8900E,67,28.622,34.4028
518,2014/9/21,17:56:00,03-22.0200S,118-00.0700E,66,28.622,34.4024
519,2014/9/21,17:57:00,03-21.9500S,118-00.2400E,66,28.657,34.4021
520,2014/9/21,17:58:00,03-21.8700S,118-00.4200E,67,28.669,34.4012
521,2014/9/21,17:59:00,03-21.8000S,118-00.6000E,67,28.667,34.3988
522,2014/9/21,18:00:00,03-21.7300S,118-00.7800E,67,28.664,34.3982
523,2014/9/21,18:01:00,03-21.6500S,118-00.9500E,67,28.663,34.3978
524,2014/9/21,18:02:00,03-21.5800S,118-01.1300E,68,28.648,34.3966
525,2014/9/21,18:03:00,03-21.5100S,118-01.3100E,68,28.635,34.3946
526,2014/9/21,18:04:00,03-21.4300S,118-01.5000E,68,28.631,34.3939
527,2014/9/21,18:05:00,03-21.3600S,118-01.6700E,67,28.633,34.3908
528,2014/9/21,18:06:00,03-21.2900S,118-01.8500E,67,28.626,34.39
529,2014/9/21,18:07:00,03-21.2100S,118-02.0200E,65,28.616,34.3876
530,2014/9/21,18:08:00,03-21.1300S,118-02.1900E,64,28.612,34.3879
531,2014/9/21,18:09:00,03-21.0500S,118-02.3600E,65,28.607,34.3866
532,2014/9/21,18:10:00,03-20.9800S,118-02.5500E,68,28.6,34.3864
533,2014/9/21,18:11:00,03-20.9100S,118-02.7300E,70,28.597,34.3861
534,2014/9/21,18:12:00,03-20.8400S,118-02.9000E,68,28.597,34.3854
535,2014/9/21,18:13:00,03-20.7700S,118-03.0800E,66,28.602,34.3851
536,2014/9/21,18:14:00,03-20.6900S,118-03.2500E,66,28.599,34.3833
537,2014/9/21,18:15:00,03-20.6200S,118-03.4300E,66,28.592,34.3833
538,2014/9/21,18:16:00,03-20.5400S,118-03.6000E,66,28.588,34.3814
539,2014/9/21,18:17:00,03-20.4700S,118-03.7800E,67,28.582,34.3813
540,2014/9/21,18:18:00,03-20.3900S,118-03.9500E,67,28.577,34.3811
541,2014/9/21,18:19:00,03-20.3200S,118-04.1300E,66,28.598,34.3818
542,2014/9/21,18:20:00,03-20.2400S,118-04.3000E,67,28.605,34.3808
543,2014/9/21,18:21:00,03-20.1800S,118-04.4700E,68,28.605,34.3819
544,2014/9/21,18:22:00,03-20.1100S,118-04.6500E,68,28.608,34.3821
545,2014/9/21,18:23:00,03-20.0400S,118-04.8300E,68,28.618,34.3819
546,2014/9/21,18:24:00,03-19.9700S,118-05.0000E,67,28.626,34.3815
547,2014/9/21,18:25:00,03-19.9000S,118-05.1700E,67,28.637,34.3811
548,2014/9/21,18:26:00,03-19.8300S,118-05.3500E,68,28.641,34.3812
549,2014/9/21,18:27:00,03-19.7500S,118-05.5200E,67,28.635,34.3811
550,2014/9/21,18:28:00,03-19.6800S,118-05.7000E,67,28.687,34.3805
551,2014/9/21,18:29:00,03-19.6100S,118-05.8700E,67,28.823,34.38
552,2014/9/21,18:30:00,03-19.5400S,118-06.0400E,69,28.908,34.376
553,2014/9/21,18:31:00,03-19.4800S,118-06.2100E,69,28.898,34.3603
554,2014/9/21,18:32:00,03-19.4100S,118-06.4000E,68,28.95,34.3523
555,2014/9/21,18:33:00,03-19.3400S,118-06.5700E,67,29.039,34.3497